Starlink 11396

operational
NORAD ID: 62015 Int'l Des: 2024-213 Owner: SPXS Country: US Constellation: starlink
LEOCIRCULAR

关于 Starlink 11396

正在加载描述...

实时位置

正在加载3D地球...

即将过境

高度历史

Altitude vs Time

uPlot chart will show altitude changes over time

两行轨道根数

1 62015U 24213H 25260.03394676 .00094092 00000-0 77207-3 0 9999
2 62015 53.1573 177.0930 0001076 117.9352 242.1775 15.69730180 47648
Epoch: Sep 17, 2025 • Age: 24 hours

当前状态

高度 376.8 km
速度 7.68 km/s
星下点 -49.39°S, 100.18°E
发射日期 Nov 18, 2024
运行时间 0.8 years
类型 internet

技术详情

分类 Payload
质量 960.00 kg
干质量 910.00 kg
总质量 960.00 kg
长度 0.30 m
直径 4.10 m
跨度 29.00 m
形状 Box + pan
制造商 SPXS
平台类型 Starlink V2MD
阶段状态 In Orbit
所有者/国家 SPXS/US

大型星座

Loading constellations...